QPF
0.00 0.00 0.00 0.00 0.00 0.00 0.00 0.01 0.02 0.02 0.01 0.01 0.00 0.01 0.02 0.03 0.06 0.12 0.04 0.01 0.00 0.00 0.00 0.00 0.00 0.00 0.00 0.00 0.00 0.00 0.00 0.00 0.00 0.00 0.00 0.00 0.00 0.00 0.00 0.00 0.00 0.00 0.00 0.00 0.00 0.00 0.00 0.00 0.00
0.00 0.00 0.00 0.00 0.00 0.00 0.01 0.01 0.01 0.01 0.01 0.01 0.00 0.00 0.01 0.03 0.01 0.01 0.00 0.00 0.00 0.00 0.00 0.00 0.00 0.00 0.00 0.00 0.00 0.00 0.00 0.00 0.00 0.00 0.00 0.00 0.00 0.00 0.00 0.00 0.00 0.00 0.00 0.00 0.00 0.00 0.00 0.00 0.00
0.00 0.00 0.00 0.00 0.00 0.00 0.01 0.02 0.01 0.00 0.00 0.00 0.00 0.00 0.01 0.01 0.01 0.00 0.00 0.00 0.00 0.00 0.00 0.00 0.00 0.00 0.00 0.00 0.00 0.01 0.01 0.01 0.00 0.00 0.00 0.01 0.01 0.01 0.01 0.00 0.00 0.00 0.00 0.00 0.00 0.00 0.00 0.00 0.00
0.00 0.00 0.00 0.00 0.00 0.00 0.01 0.01 0.02 0.01 0.00 0.00 0.00 0.00 0.01 0.00 0.00 0.00 0.00 0.00 0.00 0.00 0.00 0.00 0.00 0.00 0.00 0.00 0.01 0.01 0.01 0.01 0.01 0.00 0.01 0.01 0.01 0.01 0.01 0.01 0.00 0.00 0.00 0.00 0.00 0.00 0.00 0.00 0.00
0.00 0.00 0.00 0.00 0.00 0.00 0.00 0.01 0.01 0.01 0.00 0.00 0.00 0.00 0.04 0.01 0.00 0.00 0.00 0.00 0.00 0.00 0.00 0.00 0.00 0.00 0.00 0.00 0.01 0.01 0.01 0.01 0.01 0.02 0.02 0.02 0.01 0.01 0.01 0.01 0.00 0.00 0.00 0.00 0.00 0.00 0.00 0.00 0.00
0.00 0.00 0.00 0.00 0.00 0.00 0.00 0.00 0.00 0.00 0.00 0.00 0.00 0.01 0.03 0.01 0.00 0.00 0.00 0.00 0.00 0.00 0.00 0.00 0.00 0.00 0.00 0.00 0.01 0.01 0.02 0.02 0.02 0.02 0.02 0.02 0.01 0.01 0.01 0.01 0.01 0.00 0.00 0.00 0.00 0.00 0.00 0.00 0.00
0.00 0.00 0.00 0.00 0.00 0.00 0.00 0.00 0.00 0.00 0.00 0.00 0.00 0.00 0.02 0.02 0.01 0.00 0.00 0.00 0.00 0.00 0.00 0.00 0.00 0.00 0.00 0.01 0.02 0.02 0.03 0.03 0.03 0.03 0.03 0.02 0.01 0.01 0.01 0.01 0.01 0.01 0.01 0.00 0.00 0.00 0.00 0.00 0.00
0.00 0.00 0.00 0.00 0.00 0.00 0.00 0.00 0.00 0.00 0.00 0.00 0.00 0.01 0.06 0.07 0.03 0.01 0.00 0.00 0.00 0.00 0.00 0.00 0.00 0.00 0.00 0.00 0.01 0.02 0.03 0.04 0.04 0.03 0.02 0.01 0.01 0.01 0.01 0.01 0.00 0.00 0.00 0.00 0.00 0.00 0.00 0.00 0.00
0.00 0.00 0.00 0.00 0.00 0.00 0.00 0.00 0.00 0.00 0.01 0.00 0.00 0.02 0.09 0.11 0.05 0.02 0.00 0.00 0.00 0.00 0.00 0.00 0.00 0.00 0.01 0.00 0.00 0.01 0.01 0.03 0.02 0.01 0.01 0.01 0.01 0.02 0.01 0.01 0.00 0.00 0.00 0.00 0.00 0.00 0.00 0.00 0.00
0.00 0.00 0.00 0.00 0.00 0.00 0.00 0.00 0.00 0.00 0.00 0.00 0.00 0.02 0.03 0.03 0.04 0.03 0.00 0.00 0.00 0.00 0.00 0.00 0.01 0.01 0.01 0.01 0.01 0.01 0.01 0.01 0.01 0.01 0.01 0.02 0.07 0.08 0.05 0.06 0.01 0.00 0.00 0.00 0.00 0.00 0.00 0.00 0.00
0.00 0.00 0.00 0.00 0.00 0.00 0.00 0.00 0.01 0.00 0.00 0.00 0.00 0.02 0.02 0.01 0.01 0.01 0.01 0.02 0.00 0.00 0.01 0.01 0.01 0.01 0.01 0.02 0.03 0.03 0.04 0.04 0.04 0.06 0.03 0.06 0.08 0.05 0.04 0.05 0.02 0.01 0.01 0.02 0.02 0.01 0.01 0.01 0.00
0.00 0.00 0.00 0.00 0.00 0.00 0.00 0.00 0.00 0.00 0.00 0.00 0.01 0.02 0.03 0.01 0.01 0.00 0.00 0.02 0.02 0.01 0.00 0.00 0.01 0.01 0.02 0.02 0.03 0.04 0.04 0.05 0.06 0.07 0.05 0.08 0.07 0.05 0.04 0.06 0.05 0.05 0.04 0.04 0.04 0.02 0.02 0.01 0.00
0.00 0.00 0.00 0.00 0.00 0.00 0.00 0.00 0.00 0.00 0.00 0.00 0.01 0.03 0.03 0.01 0.01 0.02 0.02 0.05 0.07 0.02 0.00 0.00 0.00 0.00 0.02 0.03 0.03 0.03 0.04 0.05 0.07 0.08 0.06 0.06 0.05 0.04 0.04 0.04 0.05 0.04 0.04 0.04 0.03 0.02 0.02 0.01 0.00
0.00 0.00 0.00 0.00 0.00 0.00 0.00 0.00 0.00 0.00 0.00 0.00 0.01 0.04 0.02 0.01 0.02 0.02 0.04 0.13 0.14 0.05 0.01 0.00 0.00 0.00 0.01 0.02 0.02 0.03 0.03 0.05 0.08 0.08 0.06 0.04 0.06 0.07 0.05 0.05 0.05 0.04 0.04 0.04 0.04 0.03 0.04 0.03 0.02
0.00 0.00 0.00 0.00 0.00 0.00 0.00 0.00 0.00 0.00 0.00 0.00 0.01 0.02 0.02 0.01 0.01 0.03 0.05 0.10 0.09 0.04 0.02 0.01 0.00 0.01 0.02 0.02 0.02 0.03 0.04 0.04 0.06 0.07 0.06 0.04 0.04 0.06 0.06 0.07 0.06 0.05 0.04 0.05 0.05 0.05 0.06 0.06 0.05
0.00 0.00 0.00 0.00 0.00 0.00 0.00 0.00 0.00 0.00 0.00 0.00 0.01 0.02 0.03 0.02 0.01 0.03 0.06 0.03 0.02 0.02 0.01 0.01 0.01 0.01 0.02 0.03 0.03 0.03 0.03 0.04 0.05 0.05 0.05 0.04 0.04 0.05 0.06 0.06 0.06 0.07 0.06 0.09 0.11 0.11 0.13 0.12 0.10
0.00 0.00 0.00 0.00 0.00 0.00 0.00 0.01 0.00 0.00 0.00 0.01 0.02 0.04 0.04 0.03 0.03 0.04 0.08 0.06 0.02 0.02 0.01 0.01 0.02 0.03 0.03 0.04 0.04 0.04 0.04 0.04 0.04 0.04 0.05 0.05 0.04 0.04 0.06 0.08 0.10 0.10 0.12 0.13 0.11 0.15 0.16 0.17 0.15
0.00 0.00 0.00 0.00 0.00 0.00 0.00 0.01 0.00 0.00 0.01 0.01 0.03 0.04 0.03 0.02 0.04 0.08 0.11 0.09 0.04 0.03 0.02 0.02 0.03 0.04 0.05 0.05 0.06 0.07 0.06 0.05 0.04 0.04 0.05 0.05 0.05 0.06 0.08 0.10 0.11 0.11 0.14 0.16 0.18 0.18 0.15 0.16 0.16
0.00 0.00 0.00 0.00 0.00 0.00 0.00 0.01 0.01 0.01 0.01 0.02 0.02 0.02 0.04 0.05 0.06 0.13 0.18 0.13 0.05 0.05 0.05 0.06 0.05 0.05 0.04 0.05 0.05 0.05 0.06 0.07 0.08 0.08 0.07 0.07 0.06 0.07 0.09 0.11 0.12 0.13 0.15 0.17 0.18 0.19 0.18 0.18 0.17
0.00 0.00 0.00 0.00 0.00 0.00 0.00 0.01 0.01 0.01 0.01 0.04 0.06 0.04 0.06 0.09 0.11 0.17 0.18 0.18 0.14 0.10 0.10 0.10 0.09 0.07 0.06 0.06 0.07 0.08 0.08 0.09 0.12 0.12 0.11 0.09 0.08 0.08 0.07 0.09 0.11 0.13 0.16 0.18 0.20 0.20 0.20 0.19 0.18
0.00 0.00 0.00 0.00 0.00 0.00 0.01 0.02 0.02 0.01 0.01 0.01 0.03 0.05 0.07 0.07 0.09 0.18 0.17 0.14 0.15 0.21 0.19 0.19 0.16 0.13 0.11 0.10 0.09 0.10 0.10 0.10 0.13 0.13 0.13 0.12 0.09 0.08 0.07 0.08 0.11 0.12 0.12 0.13 0.15 0.17 0.19 0.18 0.18
0.00 0.00 0.00 0.00 0.00 0.00 0.01 0.05 0.06 0.03 0.02 0.01 0.02 0.03 0.03 0.04 0.05 0.09 0.13 0.11 0.09 0.15 0.20 0.23 0.22 0.19 0.15 0.14 0.12 0.13 0.14 0.15 0.15 0.14 0.13 0.12 0.12 0.10 0.09 0.09 0.11 0.12 0.13 0.13 0.13 0.15 0.14 0.15 0.15
0.00 0.00 0.00 0.00 0.00 0.00 0.00 0.04 0.12 0.09 0.05 0.02 0.01 0.01 0.02 0.02 0.02 0.03 0.04 0.06 0.06 0.08 0.12 0.16 0.18 0.19 0.19 0.19 0.19 0.20 0.19 0.19 0.19 0.16 0.13 0.13 0.13 0.12 0.12 0.10 0.11 0.12 0.13 0.13 0.12 0.12 0.11 0.11 0.11
0.00 0.00 0.00 0.01 0.00 0.00 0.00 0.03 0.14 0.19 0.11 0.04 0.02 0.01 0.01 0.01 0.01 0.03 0.03 0.03 0.06 0.08 0.07 0.10 0.14 0.15 0.18 0.24 0.26 0.25 0.24 0.22 0.22 0.22 0.18 0.15 0.13 0.12 0.11 0.11 0.11 0.12 0.13 0.12 0.11 0.09 0.09 0.10 0.11
0.00 0.00 0.00 0.00 0.00 0.00 0.00 0.04 0.14 0.19 0.12 0.05 0.02 0.02 0.01 0.01 0.01 0.01 0.02 0.02 0.04 0.08 0.11 0.10 0.11 0.13 0.17 0.18 0.19 0.20 0.20 0.19 0.19 0.20 0.19 0.15 0.13 0.10 0.09 0.09 0.10 0.10 0.10 0.08 0.06 0.05 0.05 0.05 0.05
0.00 0.00 0.01 0.02 0.01 0.01 0.03 0.08 0.10 0.08 0.06 0.03 0.02 0.02 0.01 0.01 0.01 0.01 0.02 0.03 0.04 0.05 0.08 0.12 0.10 0.09 0.12 0.14 0.16 0.17 0.18 0.16 0.14 0.11 0.10 0.09 0.09 0.08 0.09 0.09 0.08 0.08 0.06 0.04 0.04 0.04 0.04 0.04 0.03
0.00 0.00 0.00 0.01 0.01 0.04 0.09 0.12 0.08 0.05 0.04 0.02 0.02 0.02 0.02 0.02 0.02 0.02 0.02 0.02 0.03 0.03 0.04 0.06 0.07 0.07 0.09 0.10 0.11 0.13 0.12 0.12 0.10 0.09 0.07 0.06 0.06 0.05 0.06 0.05 0.04 0.03 0.03 0.03 0.03 0.03 0.04 0.04 0.03
0.00 0.00 0.01 0.01 0.02 0.07 0.11 0.13 0.12 0.07 0.03 0.02 0.02 0.02 0.02 0.01 0.02 0.02 0.02 0.02 0.02 0.02 0.03 0.04 0.05 0.05 0.06 0.07 0.07 0.08 0.09 0.09 0.08 0.08 0.08 0.08 0.07 0.06 0.05 0.04 0.04 0.04 0.03 0.03 0.03 0.03 0.04 0.04 0.03
0.01 0.01 0.00 0.00 0.01 0.05 0.14 0.26 0.26 0.18 0.08 0.07 0.05 0.02 0.01 0.01 0.01 0.01 0.01 0.02 0.02 0.03 0.03 0.03 0.04 0.04 0.05 0.05 0.05 0.06 0.06 0.06 0.07 0.07 0.06 0.06 0.05 0.04 0.03 0.03 0.03 0.02 0.02 0.02 0.02 0.03 0.03 0.02 0.02
0.02 0.01 0.01 0.01 0.01 0.02 0.12 0.34 0.34 0.28 0.14 0.07 0.04 0.02 0.01 0.01 0.01 0.01 0.01 0.02 0.03 0.03 0.04 0.04 0.04 0.04 0.05 0.05 0.04 0.05 0.05 0.04 0.04 0.04 0.04 0.03 0.03 0.02 0.02 0.02 0.01 0.01 0.01 0.01 0.01 0.01 0.01 0.01 0.01
MSLP
1008.57 1008.84 1009.25 1009.68 1010.03 1010.21 1010.19 1009.98 1009.63 1009.20 1008.79 1008.45 1008.23 1008.12 1008.08 1008.10 1008.11 1008.12 1008.12 1008.16 1008.28 1008.54 1008.95 1009.50 1010.17 1010.88 1011.57 1012.16 1012.64 1012.99 1013.26 1013.49 1013.75 1014.07 1014.46 1014.90 1015.36 1015.78 1016.12 1016.34 1016.45 1016.48 1016.47 1016.46 1016.50 1016.59 1016.72 1016.87 1017.00
1009.02 1009.41 1009.85 1010.24 1010.45 1010.44 1010.18 1009.70 1009.08 1008.42 1007.82 1007.35 1007.05 1006.93 1006.93 1007.02 1007.15 1007.29 1007.43 1007.62 1007.87 1008.25 1008.76 1009.39 1010.12 1010.87 1011.58 1012.19 1012.68 1013.06 1013.36 1013.62 1013.90 1014.24 1014.64 1015.08 1015.51 1015.91 1016.21 1016.41 1016.51 1016.55 1016.57 1016.60 1016.67 1016.80 1016.95 1017.10 1017.21
1009.56 1010.02 1010.46 1010.76 1010.83 1010.61 1010.12 1009.40 1008.55 1007.70 1006.96 1006.39 1006.05 1005.92 1005.96 1006.12 1006.33 1006.56 1006.82 1007.10 1007.46 1007.93 1008.52 1009.23 1010.01 1010.81 1011.56 1012.22 1012.76 1013.18 1013.52 1013.82 1014.13 1014.48 1014.86 1015.27 1015.66 1016.01 1016.28 1016.46 1016.57 1016.63 1016.70 1016.79 1016.92 1017.09 1017.26 1017.41 1017.50
1010.07 1010.55 1010.94 1011.13 1011.04 1010.63 1009.94 1009.04 1008.05 1007.08 1006.26 1005.67 1005.32 1005.22 1005.30 1005.51 1005.78 1006.08 1006.40 1006.75 1007.18 1007.70 1008.34 1009.10 1009.93 1010.77 1011.57 1012.28 1012.88 1013.37 1013.76 1014.10 1014.43 1014.77 1015.14 1015.50 1015.85 1016.14 1016.38 1016.55 1016.67 1016.78 1016.91 1017.07 1017.26 1017.47 1017.67 1017.80 1017.86
1010.43 1010.88 1011.17 1011.23 1010.98 1010.42 1009.60 1008.60 1007.54 1006.55 1005.74 1005.18 1004.88 1004.83 1004.97 1005.23 1005.55 1005.89 1006.25 1006.64 1007.09 1007.64 1008.31 1009.09 1009.94 1010.81 1011.64 1012.40 1013.05 1013.58 1014.03 1014.41 1014.76 1015.10 1015.44 1015.77 1016.07 1016.32 1016.53 1016.70 1016.85 1017.00 1017.18 1017.40 1017.65 1017.89 1018.09 1018.21 1018.23
1010.57 1010.92 1011.09 1011.00 1010.62 1009.96 1009.07 1008.04 1007.01 1006.08 1005.36 1004.89 1004.69 1004.73 1004.94 1005.25 1005.61 1005.98 1006.36 1006.76 1007.22 1007.78 1008.44 1009.21 1010.06 1010.92 1011.77 1012.54 1013.21 1013.78 1014.26 1014.67 1015.03 1015.38 1015.70 1016.01 1016.28 1016.51 1016.71 1016.88 1017.05 1017.24 1017.47 1017.73 1018.00 1018.26 1018.45 1018.54 1018.51
1010.45 1010.67 1010.69 1010.47 1009.99 1009.27 1008.37 1007.40 1006.46 1005.65 1005.07 1004.74 1004.66 1004.79 1005.08 1005.44 1005.84 1006.23 1006.62 1007.03 1007.49 1008.04 1008.68 1009.42 1010.24 1011.08 1011.89 1012.65 1013.31 1013.89 1014.38 1014.80 1015.18 1015.53 1015.86 1016.15 1016.42 1016.65 1016.85 1017.03 1017.22 1017.43 1017.68 1017.95 1018.23 1018.47 1018.63 1018.68 1018.61
1010.14 1010.20 1010.08 1009.74 1009.19 1008.45 1007.60 1006.72 1005.92 1005.26 1004.83 1004.64 1004.68 1004.90 1005.24 1005.65 1006.07 1006.49 1006.89 1007.31 1007.77 1008.30 1008.93 1009.64 1010.41 1011.20 1011.96 1012.67 1013.30 1013.85 1014.33 1014.75 1015.14 1015.50 1015.83 1016.14 1016.42 1016.65 1016.87 1017.06 1017.26 1017.48 1017.73 1017.99 1018.25 1018.46 1018.58 1018.59 1018.48
1009.72 1009.63 1009.38 1008.96 1008.37 1007.65 1006.88 1006.11 1005.44 1004.94 1004.64 1004.55 1004.67 1004.94 1005.31 1005.73 1006.17 1006.59 1007.01 1007.44 1007.92 1008.46 1009.07 1009.75 1010.48 1011.21 1011.91 1012.56 1013.13 1013.64 1014.09 1014.50 1014.88 1015.25 1015.61 1015.94 1016.23 1016.50 1016.73 1016.94 1017.15 1017.37 1017.60 1017.84 1018.06 1018.24 1018.32 1018.29 1018.15
1009.28 1009.08 1008.74 1008.26 1007.66 1007.00 1006.30 1005.65 1005.09 1004.70 1004.48 1004.45 1004.58 1004.85 1005.21 1005.61 1006.03 1006.45 1006.88 1007.33 1007.83 1008.40 1009.02 1009.70 1010.39 1011.08 1011.72 1012.30 1012.82 1013.27 1013.68 1014.07 1014.44 1014.82 1015.20 1015.55 1015.88 1016.18 1016.44 1016.67 1016.88 1017.10 1017.32 1017.53 1017.72 1017.86 1017.91 1017.86 1017.70
1008.93 1008.65 1008.25 1007.75 1007.18 1006.56 1005.95 1005.38 1004.90 1004.56 1004.36 1004.32 1004.42 1004.62 1004.91 1005.25 1005.63 1006.03 1006.46 1006.94 1007.48 1008.09 1008.74 1009.44 1010.13 1010.80 1011.40 1011.94 1012.40 1012.81 1013.18 1013.54 1013.90 1014.28 1014.67 1015.06 1015.42 1015.75 1016.04 1016.29 1016.52 1016.74 1016.94 1017.14 1017.31 1017.43 1017.47 1017.41 1017.25
1008.71 1008.39 1007.97 1007.47 1006.93 1006.37 1005.81 1005.30 1004.86 1004.52 1004.29 1004.18 1004.18 1004.28 1004.46 1004.71 1005.02 1005.38 1005.81 1006.32 1006.90 1007.56 1008.27 1009.00 1009.73 1010.40 1011.00 1011.52 1011.95 1012.33 1012.67 1013.00 1013.35 1013.73 1014.13 1014.53 1014.93 1015.29 1015.61 1015.89 1016.14 1016.37 1016.58 1016.77 1016.94 1017.06 1017.10 1017.05 1016.91
1008.61 1008.27 1007.86 1007.38 1006.88 1006.36 1005.85 1005.36 1004.92 1004.55 1004.25 1004.04 1003.92 1003.90 1003.95 1004.09 1004.32 1004.64 1005.05 1005.57 1006.19 1006.90 1007.67 1008.46 1009.24 1009.95 1010.58 1011.11 1011.55 1011.91 1012.23 1012.55 1012.89 1013.26 1013.66 1014.08 1014.49 1014.88 1015.24 1015.55 1015.83 1016.08 1016.31 1016.51 1016.69 1016.82 1016.88 1016.86 1016.75
1008.58 1008.24 1007.84 1007.39 1006.92 1006.44 1005.95 1005.48 1005.02 1004.60 1004.23 1003.93 1003.70 1003.56 1003.50 1003.54 1003.69 1003.95 1004.34 1004.86 1005.50 1006.24 1007.06 1007.91 1008.75 1009.52 1010.20 1010.77 1011.23 1011.61 1011.94 1012.25 1012.57 1012.94 1013.34 1013.76 1014.19 1014.61 1014.99 1015.34 1015.65 1015.92 1016.17 1016.40 1016.60 1016.76 1016.85 1016.86 1016.78
1008.55 1008.21 1007.81 1007.39 1006.95 1006.50 1006.04 1005.57 1005.10 1004.65 1004.24 1003.88 1003.58 1003.36 1003.24 1003.21 1003.30 1003.51 1003.86 1004.35 1004.97 1005.72 1006.56 1007.45 1008.33 1009.15 1009.89 1010.51 1011.02 1011.43 1011.78 1012.10 1012.43 1012.78 1013.18 1013.61 1014.06 1014.49 1014.91 1015.28 1015.62 1015.92 1016.19 1016.44 1016.65 1016.83 1016.94 1016.99 1016.94
1008.44 1008.09 1007.70 1007.30 1006.89 1006.47 1006.04 1005.60 1005.15 1004.71 1004.31 1003.94 1003.64 1003.41 1003.27 1003.22 1003.27 1003.44 1003.74 1004.18 1004.75 1005.46 1006.26 1007.14 1008.03 1008.88 1009.66 1010.33 1010.89 1011.34 1011.73 1012.07 1012.41 1012.78 1013.19 1013.63 1014.09 1014.55 1014.99 1015.39 1015.75 1016.07 1016.35 1016.59 1016.81 1016.99 1017.11 1017.18 1017.16
1008.22 1007.85 1007.48 1007.11 1006.74 1006.36 1005.98 1005.60 1005.21 1004.84 1004.49 1004.20 1003.96 1003.79 1003.69 1003.66 1003.71 1003.84 1004.08 1004.43 1004.91 1005.51 1006.23 1007.03 1007.87 1008.71 1009.50 1010.20 1010.80 1011.31 1011.74 1012.12 1012.50 1012.89 1013.32 1013.79 1014.27 1014.76 1015.23 1015.65 1016.02 1016.34 1016.61 1016.84 1017.03 1017.19 1017.30 1017.37 1017.37
1007.90 1007.52 1007.17 1006.84 1006.52 1006.23 1005.93 1005.64 1005.36 1005.10 1004.88 1004.71 1004.60 1004.54 1004.53 1004.56 1004.63 1004.73 1004.90 1005.14 1005.47 1005.92 1006.49 1007.15 1007.89 1008.66 1009.41 1010.11 1010.74 1011.29 1011.77 1012.21 1012.64 1013.08 1013.56 1014.07 1014.59 1015.12 1015.61 1016.05 1016.42 1016.73 1016.97 1017.15 1017.30 1017.41 1017.49 1017.54 1017.55
1007.51 1007.14 1006.83 1006.57 1006.35 1006.16 1005.99 1005.83 1005.69 1005.59 1005.53 1005.53 1005.58 1005.67 1005.79 1005.90 1006.00 1006.08 1006.16 1006.26 1006.43 1006.68 1007.04 1007.51 1008.09 1008.73 1009.41 1010.07 1010.71 1011.29 1011.83 1012.34 1012.84 1013.36 1013.90 1014.47 1015.05 1015.61 1016.14 1016.59 1016.96 1017.24 1017.43 1017.56 1017.64 1017.68 1017.72 1017.73 1017.74
1007.11 1006.79 1006.55 1006.39 1006.30 1006.26 1006.24 1006.24 1006.27 1006.35 1006.48 1006.66 1006.88 1007.14 1007.38 1007.58 1007.72 1007.77 1007.77 1007.73 1007.71 1007.74 1007.87 1008.12 1008.50 1008.98 1009.55 1010.15 1010.77 1011.38 1011.97 1012.55 1013.13 1013.73 1014.36 1015.00 1015.64 1016.26 1016.81 1017.28 1017.63 1017.88 1018.02 1018.08 1018.08 1018.06 1018.03 1018.00 1018.00
1006.79 1006.52 1006.39 1006.37 1006.44 1006.57 1006.73 1006.92 1007.13 1007.38 1007.68 1008.03 1008.42 1008.82 1009.18 1009.46 1009.63 1009.68 1009.60 1009.43 1009.23 1009.05 1008.95 1008.98 1009.15 1009.46 1009.89 1010.42 1011.01 1011.63 1012.27 1012.91 1013.58 1014.26 1014.97 1015.68 1016.38 1017.04 1017.63 1018.10 1018.44 1018.65 1018.74 1018.73 1018.67 1018.57 1018.49 1018.43 1018.40
1006.56 1006.38 1006.38 1006.52 1006.77 1007.09 1007.44 1007.81 1008.19 1008.60 1009.05 1009.54 1010.06 1010.57 1011.02 1011.37 1011.58 1011.61 1011.48 1011.22 1010.89 1010.54 1010.25 1010.08 1010.06 1010.22 1010.53 1010.97 1011.52 1012.14 1012.81 1013.51 1014.24 1014.99 1015.76 1016.53 1017.28 1017.96 1018.56 1019.03 1019.36 1019.54 1019.58 1019.52 1019.40 1019.25 1019.12 1019.03 1018.99
1006.45 1006.37 1006.50 1006.80 1007.23 1007.73 1008.26 1008.79 1009.33 1009.87 1010.44 1011.03 1011.63 1012.21 1012.73 1013.13 1013.37 1013.42 1013.28 1012.98 1012.56 1012.12 1011.70 1011.39 1011.24 1011.27 1011.48 1011.86 1012.36 1012.97 1013.65 1014.38 1015.15 1015.94 1016.74 1017.53 1018.28 1018.97 1019.56 1020.01 1020.31 1020.46 1020.48 1020.39 1020.23 1020.05 1019.89 1019.78 1019.74
1006.45 1006.44 1006.69 1007.13 1007.71 1008.38 1009.06 1009.74 1010.40 1011.05 1011.69 1012.34 1012.98 1013.61 1014.16 1014.61 1014.89 1014.98 1014.87 1014.58 1014.17 1013.70 1013.24 1012.87 1012.65 1012.61 1012.75 1013.07 1013.54 1014.12 1014.79 1015.52 1016.29 1017.07 1017.86 1018.62 1019.35 1020.00 1020.55 1020.97 1021.24 1021.36 1021.36 1021.25 1021.08 1020.89 1020.72 1020.61 1020.56
1006.52 1006.57 1006.89 1007.44 1008.14 1008.93 1009.75 1010.54 1011.29 1012.01 1012.70 1013.37 1014.04 1014.68 1015.26 1015.74 1016.07 1016.22 1016.18 1015.97 1015.63 1015.21 1014.79 1014.43 1014.21 1014.15 1014.26 1014.55 1014.98 1015.54 1016.17 1016.87 1017.59 1018.32 1019.05 1019.75 1020.40 1020.98 1021.46 1021.82 1022.05 1022.15 1022.13 1022.02 1021.85 1021.67 1021.51 1021.40 1021.35
1006.66 1006.72 1007.08 1007.68 1008.46 1009.33 1010.23 1011.11 1011.93 1012.70 1013.42 1014.11 1014.78 1015.42 1016.01 1016.52 1016.91 1017.14 1017.21 1017.11 1016.89 1016.59 1016.27 1015.99 1015.82 1015.78 1015.90 1016.18 1016.58 1017.09 1017.67 1018.30 1018.95 1019.59 1020.22 1020.81 1021.36 1021.84 1022.24 1022.53 1022.71 1022.78 1022.75 1022.64 1022.48 1022.32 1022.17 1022.06 1022.00
1006.85 1006.89 1007.24 1007.85 1008.66 1009.58 1010.54 1011.48 1012.36 1013.16 1013.91 1014.60 1015.27 1015.90 1016.50 1017.03 1017.48 1017.79 1017.97 1018.02 1017.94 1017.79 1017.60 1017.44 1017.36 1017.38 1017.53 1017.80 1018.18 1018.64 1019.15 1019.70 1020.24 1020.77 1021.28 1021.75 1022.18 1022.55 1022.85 1023.06 1023.19 1023.23 1023.19 1023.08 1022.94 1022.78 1022.64 1022.53 1022.45
1007.10 1007.11 1007.42 1008.01 1008.81 1009.75 1010.74 1011.73 1012.65 1013.50 1014.27 1014.97 1015.64 1016.26 1016.86 1017.41 1017.89 1018.28 1018.57 1018.74 1018.81 1018.80 1018.76 1018.73 1018.74 1018.83 1019.01 1019.28 1019.63 1020.03 1020.47 1020.93 1021.37 1021.78 1022.17 1022.52 1022.83 1023.09 1023.30 1023.45 1023.53 1023.54 1023.49 1023.38 1023.24 1023.09 1022.94 1022.81 1022.70
1007.44 1007.41 1007.68 1008.23 1009.02 1009.95 1010.97 1011.99 1012.96 1013.85 1014.65 1015.37 1016.04 1016.66 1017.25 1017.80 1018.29 1018.72 1019.07 1019.34 1019.52 1019.64 1019.72 1019.79 1019.88 1020.02 1020.23 1020.49 1020.81 1021.16 1021.53 1021.90 1022.24 1022.56 1022.85 1023.10 1023.32 1023.50 1023.64 1023.74 1023.78 1023.77 1023.71 1023.60 1023.45 1023.28 1023.11 1022.94 1022.79
1007.91 1007.86 1008.09 1008.61 1009.37 1010.30 1011.34 1012.39 1013.41 1014.34 1015.18 1015.93 1016.61 1017.21 1017.78 1018.30 1018.78 1019.21 1019.59 1019.89 1020.14 1020.33 1020.49 1020.63 1020.77 1020.95 1021.16 1021.41 1021.69 1021.99 1022.30 1022.59 1022.87 1023.11 1023.33 1023.51 1023.67 1023.81 1023.92 1023.99 1024.01 1024.00 1023.93 1023.80 1023.64 1023.44 1023.23 1023.02 1022.82
Thickness
5806 5814 5820 5815 5798 5792 5794 5812 5815 5811 5823 5843 5848 5842 5829 5817 5805 5790 5824 5842 5837 5826 5816 5809 5804 5800 5795 5791 5787 5783 5780 5777 5774 5772 5770 5768 5766 5765 5763 5761 5759 5758 5756 5755 5754 5752 5751 5750 5749
5804 5812 5811 5801 5782 5777 5795 5812 5810 5815 5830 5847 5848 5844 5834 5822 5829 5828 5835 5839 5833 5823 5814 5808 5802 5797 5793 5788 5784 5780 5777 5774 5771 5769 5766 5765 5763 5761 5760 5758 5756 5755 5753 5752 5751 5749 5748 5747 5747
5800 5805 5793 5786 5778 5781 5796 5808 5809 5822 5841 5846 5843 5846 5836 5825 5833 5833 5837 5838 5830 5820 5813 5804 5799 5794 5790 5785 5781 5778 5774 5771 5768 5766 5763 5762 5760 5758 5756 5755 5753 5752 5750 5749 5748 5747 5745 5745 5744
5796 5795 5789 5778 5778 5802 5813 5812 5809 5809 5832 5845 5842 5832 5833 5843 5842 5842 5841 5836 5826 5817 5809 5800 5796 5792 5787 5782 5778 5775 5771 5768 5765 5763 5761 5759 5757 5755 5754 5752 5750 5749 5747 5746 5745 5744 5743 5742 5741
5792 5782 5770 5770 5784 5809 5826 5825 5815 5805 5818 5835 5839 5822 5815 5837 5847 5843 5838 5832 5823 5815 5806 5797 5792 5788 5784 5779 5776 5772 5768 5766 5763 5761 5758 5756 5754 5753 5751 5750 5748 5746 5744 5743 5742 5741 5740 5740 5739
5776 5775 5759 5764 5785 5811 5828 5829 5822 5816 5824 5834 5837 5822 5813 5836 5837 5836 5835 5829 5824 5815 5804 5794 5789 5785 5781 5777 5773 5769 5766 5763 5761 5758 5756 5754 5752 5750 5749 5747 5745 5743 5742 5741 5739 5738 5738 5737 5737
5765 5765 5762 5771 5785 5805 5827 5836 5825 5820 5825 5836 5840 5820 5815 5826 5831 5835 5832 5828 5823 5814 5802 5792 5786 5782 5777 5774 5770 5767 5764 5761 5759 5756 5754 5752 5750 5748 5747 5745 5743 5741 5739 5738 5737 5736 5736 5735 5735
5773 5763 5761 5773 5782 5800 5828 5836 5834 5830 5827 5845 5841 5816 5801 5813 5828 5830 5829 5825 5820 5812 5801 5794 5787 5781 5776 5771 5767 5764 5762 5759 5756 5754 5752 5750 5748 5746 5745 5743 5741 5739 5737 5736 5735 5735 5734 5734 5734
5771 5750 5751 5770 5784 5802 5825 5822 5828 5840 5832 5834 5836 5823 5813 5820 5824 5820 5819 5817 5813 5808 5801 5796 5789 5782 5777 5772 5766 5762 5759 5756 5754 5752 5750 5748 5747 5746 5744 5743 5740 5738 5736 5735 5734 5734 5733 5733 5733
5758 5743 5757 5780 5797 5807 5818 5819 5818 5819 5816 5820 5823 5823 5823 5821 5817 5812 5812 5809 5806 5802 5800 5798 5791 5784 5780 5775 5766 5762 5759 5755 5754 5752 5749 5748 5748 5747 5745 5742 5739 5737 5735 5734 5733 5733 5732 5732 5733
5755 5749 5765 5781 5798 5804 5804 5807 5813 5806 5805 5814 5814 5818 5816 5816 5816 5815 5812 5809 5806 5803 5800 5798 5792 5786 5783 5776 5768 5764 5761 5757 5755 5753 5750 5749 5748 5747 5745 5741 5738 5737 5735 5734 5733 5732 5732 5734 5735
5753 5758 5767 5776 5789 5792 5794 5798 5800 5802 5811 5825 5827 5825 5818 5815 5815 5816 5814 5809 5805 5803 5800 5798 5793 5787 5784 5778 5771 5767 5764 5758 5757 5755 5752 5750 5749 5748 5747 5743 5740 5739 5737 5736 5735 5734 5735 5736 5737
5750 5756 5765 5773 5778 5782 5785 5787 5793 5799 5815 5824 5824 5821 5814 5814 5815 5817 5817 5812 5803 5799 5798 5797 5793 5787 5783 5778 5773 5770 5766 5761 5760 5757 5753 5751 5749 5747 5747 5745 5743 5741 5740 5738 5737 5736 5736 5736 5736
5750 5755 5760 5766 5770 5775 5773 5779 5784 5793 5808 5811 5812 5812 5814 5814 5815 5814 5812 5805 5798 5795 5797 5796 5792 5787 5782 5777 5773 5770 5767 5762 5761 5757 5753 5751 5749 5747 5746 5743 5741 5740 5739 5738 5736 5735 5734 5732 5732
5747 5741 5746 5756 5764 5769 5769 5762 5775 5794 5801 5800 5802 5806 5807 5810 5813 5807 5807 5800 5797 5793 5793 5791 5789 5785 5780 5775 5771 5769 5766 5762 5760 5756 5753 5750 5748 5745 5743 5740 5738 5736 5735 5733 5731 5730 5728 5727 5727
5735 5728 5726 5750 5762 5768 5758 5746 5777 5795 5794 5790 5793 5796 5796 5802 5806 5802 5800 5798 5797 5794 5790 5788 5787 5781 5776 5772 5768 5767 5764 5761 5758 5755 5752 5748 5745 5742 5739 5736 5733 5731 5730 5727 5725 5723 5720 5718 5717
5721 5718 5727 5749 5768 5768 5757 5750 5775 5793 5788 5782 5786 5789 5790 5792 5793 5793 5795 5790 5793 5790 5787 5783 5781 5776 5772 5768 5764 5762 5760 5758 5755 5751 5748 5744 5741 5739 5735 5732 5730 5728 5725 5722 5720 5717 5713 5710 5709
5720 5729 5737 5749 5766 5763 5752 5752 5769 5781 5781 5778 5780 5783 5782 5779 5778 5779 5782 5782 5785 5783 5782 5778 5774 5771 5767 5763 5759 5756 5754 5751 5749 5746 5742 5739 5736 5733 5730 5727 5724 5722 5719 5715 5713 5710 5707 5704 5701
5731 5732 5738 5752 5766 5755 5747 5746 5755 5765 5767 5764 5764 5766 5765 5764 5767 5768 5770 5772 5772 5771 5770 5768 5766 5763 5760 5756 5752 5748 5745 5743 5740 5738 5734 5731 5728 5726 5723 5720 5718 5715 5712 5708 5705 5701 5698 5694 5692
5726 5725 5732 5745 5754 5749 5740 5737 5744 5749 5748 5746 5744 5745 5746 5748 5750 5751 5753 5753 5757 5758 5758 5757 5756 5755 5753 5751 5749 5746 5742 5736 5732 5729 5725 5722 5720 5716 5714 5712 5709 5706 5703 5700 5696 5693 5689 5684 5682
5718 5720 5726 5730 5740 5742 5735 5723 5729 5736 5740 5736 5732 5730 5731 5733 5731 5733 5734 5735 5740 5742 5744 5747 5747 5746 5746 5745 5742 5738 5733 5727 5722 5718 5714 5711 5708 5705 5702 5699 5697 5695 5692 5688 5685 5682 5680 5675 5672
5709 5728 5730 5727 5722 5718 5726 5705 5717 5724 5723 5720 5717 5717 5718 5718 5719 5719 5720 5723 5728 5732 5736 5737 5738 5738 5737 5736 5733 5729 5723 5716 5712 5706 5701 5698 5695 5692 5690 5687 5686 5683 5680 5676 5673 5670 5669 5666 5662
5717 5731 5726 5724 5718 5716 5722 5708 5704 5714 5706 5705 5704 5705 5705 5706 5706 5706 5708 5711 5716 5720 5722 5725 5725 5726 5726 5725 5723 5719 5713 5707 5700 5695 5690 5686 5682 5679 5677 5676 5673 5670 5666 5663 5661 5658 5656 5654 5650
5722 5720 5717 5716 5713 5698 5712 5709 5696 5700 5698 5693 5692 5693 5694 5695 5695 5695 5697 5701 5703 5707 5709 5710 5712 5712 5712 5712 5710 5707 5701 5695 5689 5683 5678 5673 5669 5665 5663 5662 5659 5656 5653 5650 5647 5646 5643 5640 5637
5713 5700 5686 5685 5691 5701 5727 5714 5688 5699 5699 5691 5683 5680 5681 5683 5683 5683 5684 5687 5689 5691 5693 5695 5696 5695 5695 5695 5693 5691 5687 5682 5676 5671 5666 5661 5656 5653 5650 5648 5645 5642 5639 5636 5634 5632 5629 5626 5623
5704 5702 5682 5670 5677 5698 5717 5698 5680 5691 5690 5684 5678 5675 5671 5670 5670 5670 5670 5672 5674 5676 5678 5680 5679 5679 5679 5678 5675 5674 5672 5667 5661 5656 5651 5647 5642 5639 5636 5634 5630 5628 5626 5623 5621 5618 5615 5612 5609
5699 5702 5708 5689 5679 5672 5682 5673 5670 5678 5676 5673 5669 5666 5661 5659 5658 5658 5658 5659 5660 5661 5663 5665 5664 5663 5662 5661 5659 5656 5653 5650 5645 5640 5637 5633 5629 5626 5623 5620 5617 5613 5611 5610 5607 5605 5602 5599 5596
5709 5709 5696 5686 5667 5657 5668 5666 5661 5660 5660 5660 5657 5654 5650 5648 5647 5646 5646 5646 5646 5648 5649 5650 5649 5647 5645 5644 5642 5639 5636 5633 5629 5625 5621 5618 5614 5612 5608 5604 5602 5599 5597 5596 5594 5592 5589 5586 5582
5694 5698 5695 5690 5683 5661 5651 5651 5667 5662 5656 5652 5647 5643 5640 5638 5636 5634 5634 5634 5634 5634 5634 5634 5633 5632 5629 5627 5626 5624 5620 5617 5613 5609 5606 5603 5600 5597 5594 5591 5589 5587 5584 5582 5581 5579 5576 5573 5569
5697 5696 5692 5680 5680 5681 5664 5639 5661 5661 5652 5644 5636 5632 5630 5627 5625 5624 5623 5622 5622 5621 5620 5619 5618 5616 5614 5612 5610 5608 5605 5602 5598 5594 5591 5588 5585 5583 5581 5579 5578 5575 5572 5570 5568 5566 5563 5560 5556